Cairo, Egypt

11:54 PM EET on August 24, 2016 (GMT +0200)
Cairo International

Weather History for HECA - August, 2013

Change the Weather History Date:

Wednesday, August 7, 2013

  Actual Average Record
Temperature  
Mean Temperature 86 °F -  
Max Temperature 97 °F 91 °F 108 °F (2015)
Min Temperature 75 °F 72 °F 71 °F (2000)
Cooling Degree Days 21    
Growing Degree Days 36 (Base 50)    
Moisture  
Dew Point 64 °F    
Average Humidity 54    
Maximum Humidity 83    
Minimum Humidity 8    
Precipitation  
Precipitation 0.00 in 0.00 in - ()
Sea Level Pressure  
Sea Level Pressure 29.76 in    
Wind  
Wind Speed 7 mph ()    
Max Wind Speed 16 mph    
Max Gust Speed -    
Visibility 4.7 miles    
Events      
Averages and records for this station are not official NWS values.
T = Trace of Precipitation, MM = Missing Value Source: Averaged Metar Reports

Daily Weather History Graph

Daily Weather History Graph

Search for Another Location

Airport or City:

Trip Planner

Search our weather history database for the weather conditions in past years. The results will help you decide how hot, cold, wet, or windy it might be!

Date:

Astronomy

Aug. 07, 2013 Rise Set
Actual Time 5:16 AM EET 6:43 PM EET
Civil Twilight 4:51 AM EET 7:08 PM EET
Nautical Twilight 4:20 AM EET 7:39 PM EET
Astronomical Twilight 3:48 AM EET 8:10 PM EET
Moon 5:39 AM EET (8/7) 6:48 PM EET (8/7)
Length of Visible Light 14h 17m
Length of Day
13h 26m
New Moon, 0% of the Moon is Illuminated
Aug 7
New Moon
Aug 14
First Quarter
Aug 21
Full
Aug 28
Last Quarter
Sep 5
New

Hourly Weather History & Observations

Time (EET) Temp. Heat Index Dew Point Humidity Pressure Visibility Wind Dir Wind Speed Gust Speed Precip Events Conditions
12:00 AM 78.8 °F - 71.6 °F 78% 29.74 in - NE 10.4 mph - N/A   Clear
12:30 AM 78.8 °F - 71.6 °F 78% 29.74 in - NE 10.4 mph - N/A   Clear
1:00 AM 78.8 °F - 71.6 °F 78% 29.74 in - NE 10.4 mph - N/A   Clear
1:30 AM 78.8 °F - 71.6 °F 78% 29.74 in - NE 10.4 mph - N/A   Clear
2:00 AM 78 °F - 72 °F 75% 29.73 in 6 mi NE 8.1 mph - -  
2:00 AM 78.8 °F - 71.6 °F 78% 29.74 in - NE 8.1 mph - N/A   Clear
2:30 AM 77.0 °F - 71.6 °F 83% 29.74 in - NE 6.9 mph - N/A   Clear
3:00 AM 77.0 °F - 71.6 °F 83% 29.74 in - NE 5.8 mph - N/A   Clear
3:30 AM 77.0 °F - 71.6 °F 83% 29.74 in - NE 5.8 mph - N/A   Clear
4:00 AM 77.0 °F - 69.8 °F 78% 29.74 in - NNE 3.5 mph - N/A   Clear
4:30 AM 77.0 °F - 69.8 °F 78% 29.74 in - NNE 3.5 mph - N/A   Clear
5:00 AM 75.2 °F - 68.0 °F 78% 29.74 in - ENE 2.3 mph - N/A   Clear
5:30 AM 75.2 °F - 68.0 °F 78% 29.74 in - ENE 2.3 mph - N/A   Clear
6:00 AM 75.2 °F - 68.0 °F 78% 29.74 in - ENE 2.3 mph - N/A   Clear
6:30 AM 78.8 °F - 71.6 °F 78% 29.77 in - North 2.3 mph - N/A   Clear
7:00 AM 78.8 °F - 71.6 °F 78% 29.77 in - North 2.3 mph - N/A   Clear
7:30 AM 78.8 °F - 71.6 °F 78% 29.77 in - North 5.8 mph - N/A   Clear
8:00 AM 79 °F - 72 °F 73% 29.77 in 4 mi North 4.6 mph - -   Mist
8:00 AM 78.8 °F - 71.6 °F 78% 29.77 in 3.7 mi North 4.6 mph - N/A   Unknown
8:30 AM 80.6 °F 84.6 °F 71.6 °F 74% 29.77 in 3.7 mi North 4.6 mph - N/A   Unknown
9:00 AM 82.4 °F 87.2 °F 71.6 °F 70% 29.77 in 3.7 mi North 4.6 mph - N/A   Unknown
9:30 AM 84.2 °F 88.4 °F 69.8 °F 62% 29.77 in - NNW 4.6 mph - N/A   Clear
10:00 AM 86.0 °F 89.4 °F 68.0 °F 55% 29.77 in - North 5.8 mph - N/A   Clear
10:30 AM 87.8 °F 90.4 °F 66.2 °F 49% 29.77 in - NNW 6.9 mph - N/A   Clear
10:49 AM 89.6 °F 91.1 °F 64.4 °F 43% 29.77 in - NNW 5.8 mph - N/A   Clear
11:30 AM 91.4 °F 89.9 °F 57.2 °F 31% 29.77 in - North 5.8 mph - N/A   Clear
12:00 PM 93.2 °F 93.3 °F 60.8 °F 34% 29.77 in - NNW 5.8 mph - N/A   Clear
12:30 PM 95.0 °F 93.0 °F 55.4 °F 26% 29.77 in - North 8.1 mph - N/A   Clear
1:00 PM 95.0 °F 92.7 °F 53.6 °F 25% 29.77 in - NNW 8.1 mph - N/A   Clear
1:30 PM 96.8 °F - 41.0 °F 15% 29.74 in - NW 11.5 mph - N/A   Clear
2:00 PM 97 °F - 42 °F 8% 29.74 in 6 mi NW 10.4 mph - -  
2:00 PM 96.8 °F - 41.0 °F 15% 29.74 in - NW 10.4 mph - N/A   Clear
2:30 PM 96.8 °F - 46.4 °F 18% 29.74 in - NNW 11.5 mph - N/A   Clear
3:00 PM 96.8 °F - 48.2 °F 19% 29.74 in - NNW 9.2 mph - N/A   Clear
3:30 PM 96.8 °F - 46.4 °F 18% 29.74 in - North 11.5 mph - N/A   Clear
4:00 PM 96.8 °F 94.4 °F 53.6 °F 23% 29.74 in - NNW 9.2 mph - N/A   Clear
4:30 PM 95.0 °F 92.7 °F 53.6 °F 25% 29.74 in - NNW 10.4 mph - N/A   Clear
5:00 PM 95.0 °F - 51.8 °F 23% 29.74 in - North 12.7 mph - N/A   Clear
5:30 PM 93.2 °F 91.9 °F 57.2 °F 30% 29.74 in - North 12.7 mph - N/A   Clear
6:00 PM 93.2 °F 93.3 °F 60.8 °F 34% 29.74 in - NNW 13.8 mph - N/A   Clear
6:30 PM 91.4 °F 91.4 °F 60.8 °F 36% 29.74 in - NNW 13.8 mph - N/A   Clear
7:00 PM 91.4 °F 91.4 °F 60.8 °F 36% 29.74 in - NNW 12.7 mph - N/A   Clear
7:30 PM 91.4 °F 92.1 °F 62.6 °F 38% 29.77 in - NNW 12.7 mph - N/A   Clear
8:00 PM 90 °F - 62 °F 30% 29.77 in 6 mi NNW 11.5 mph - -  
8:00 PM 89.6 °F 90.1 °F 62.6 °F 40% 29.77 in - NNW 11.5 mph - N/A   Clear
8:30 PM 87.8 °F 91.4 °F 68.0 °F 52% 29.77 in - North 12.7 mph - N/A   Clear
9:00 PM 86.0 °F 89.4 °F 68.0 °F 55% 29.80 in - North 16.1 mph - N/A   Clear
9:30 PM 84.2 °F 86.6 °F 66.2 °F 55% 29.80 in - North 11.5 mph - N/A   Clear
10:00 PM 82.4 °F 85.4 °F 68.0 °F 62% 29.80 in - North 11.5 mph - N/A   Clear
10:30 PM 82.4 °F 85.4 °F 68.0 °F 62% 29.80 in - North 11.5 mph - N/A   Clear
11:00 PM 82.4 °F 85.4 °F 68.0 °F 62% 29.80 in - North 9.2 mph - N/A   Clear
11:30 PM 80.6 °F 83.9 °F 69.8 °F 70% 29.80 in - North 6.9 mph - N/A   Clear